Weather in Novotroitskoe

Russia / Voronezh Oblast     50°07′46″N   41°05′55″E
temp.,
°C
wind,
m/s
gust,
m/s
humid.,
%
clouds,
%
prec.,
mm/h
press.,
hPa
HPBL,
m
25 february, thu
thu2500:00−14ssw468296 0.0 1038320
03:00−13ssw598797 0.1 1036382
06:00−12ssw51089100 0.1 1034411
09:00−11ssw6109099 0.1 1032418
12:00−8sw71191100 0.2 1030488
15:00−5sw71191100 0.4 1027489
18:00−4sw71395100 0.3 1023403
21:00−2wsw61296100 0.8 1022357
26 february, fri
fri2600:000w61197100 0.4 1020305
03:00+1w51198100 0.9 1020312
06:00+1w51198100 0.3 1019312
09:00+1w4999100 0.4 1020239
12:00+3w510100100 0.1 1018278
15:00+3w61199100 0.1 1017292
18:00+3wsw61498100 0.0 1015383
21:00+2w61397100 0.1 1014407
27 february, sat
sat2700:00+2w51397100 0.2 1013375
03:00+2w61395100 0.3 1012408
06:00+1w51196100 0.0 1010396
09:00+1w61294100 0.0 1010478
12:00+2w61192100 0.0 1009650
15:00+1w61196100 0.1 1009622
18:00+1w61197100 0.1 1009536
21:00+1w51196100 0.1 1009494
28 february, sun
sun2800:000wnw599899 0.1 1009425
03:000wnw51095100 0.3 1010471
06:00−1nw489682 0.1 1011355
09:00−1n578285 0.1 1013738
12:00−2nnw577397 0.0 1014673
15:00−2n687296 0.0 1016733
18:00−3n477997 0.0 1017737
21:00−3n577998 0.0 1020744
1 march, mon
mon100:00−4n4682100 0.1 1022731
03:00−5n4682100 0.1 1023634
06:00−5nnw478596 0.0 1024687
09:00−5n587798 0.1 1026687
12:00−4n5771100 0.0 1028751
15:00−3n5768100 0.0 1028796
18:00−4n4775100 0.0 1029752
21:00−4nw268593 0.0 1030403